Weather in Peskovatskoye

Russia / Tula Oblast     54°02′56″N   36°16′09″E
В апреле 2022 года жителям России запретили посещать сайт meteo.paraplan.net по решению Генеральной прокуратуры. Аудитория сайта уменьшилась в 10 раз. Владельцы сайта не видят смысла в поддержке погодного сервера в таких условиях. Сайт будет закрыт в октябре.
temp.,
°C
wind,
m/s
gust,
m/s
humid.,
%
clouds,
%
prec.,
mm/h
press.,
hPa
HPBL,
m
4 october, tue
tue400:00+9s91783100 0.3 10001407
03:00+9sse81580100 0.3 10011182
06:00+9s91780100 0.1 10021675
09:00+6s61291100 2.6 10051027
12:00+9s7127799 1.0 10071306
15:00+9s71077100 1.4 10081268
18:00+6sw5992100 2.3 10091102
21:00+6ssw5994100 2.8 10091115
5 october, wed
wed500:00+6ssw5891100 0.4 10101065
03:00+6sw4792100 0.8 1011964
06:00+6sw4793100 0.4 1012954
09:00+6wsw3892100 0.8 1013667
12:00+7w5782100 0.4 10141005
15:00+7w5987100 0.8 1017865
18:00+7w3992100 0.1 1018825
21:00+7w4889100 0.3 1018319
6 october, thu
thu600:00+6w4109656 0.1 1019390
03:00+7wsw2797100 0.3 1019378
06:00+8wsw2798100 0.9 1018378
09:00+8wsw2697100 1.0 1019315
12:00+9wsw269565 0.0 1019280
15:00+12wsw368877 0.0 1019455
18:00+10sw37955 0.0 1019175
21:00+9sw311965 0.0 1019243
7 october, fri
fri700:00+8sw3109575 0.0 1019240
03:00+8wsw4119669 0.0 1019257
06:00+9wnw4129762 0.0 1020391
09:00+11wnw498930 0.0 1022525
12:00+13wnw58707 0.0 1024856
15:00+13nw576916 0.0 1025886
18:00+9w36870 0.0 1026106
21:00+7w23930 0.0 102766
8 october, sat
sat800:00+6wsw22930 0.0 102825
03:00+6sw22945 0.0 102718
06:00+6ssw23961 0.0 102751
09:00+9ssw35881 0.0 1026198
12:00+13ssw46705 0.0 1025685
15:00+15ssw46625 0.0 1022902
18:00+10s38825 0.0 1022127
21:00+9s4118794 0.0 1021235